Easton, MD

5:44 AM EST on December 16, 2019 (GMT -0500)
Easton / Newnam

Weather History for KESN - September, 2019

Change the Weather History Date:

Friday, September 20, 2019

  Actual Average Record
Temperature  
Mean Temperature 64 °F -  
Max Temperature 77 °F 80 °F 89 °F (1965)
Min Temperature 51 °F 58 °F 43 °F (1959)
Degree Days  
Heating Degree Days 1    
Growing Degree Days 14 (Base 50)    
Moisture  
Dew Point 52 °F    
Average Humidity 77    
Maximum Humidity 94    
Minimum Humidity 34    
Precipitation  
Precipitation 0.00 in - - ()
Sea Level Pressure  
Sea Level Pressure 30.31 in    
Wind  
Wind Speed 1 mph (SSW)    
Max Wind Speed 8 mph    
Max Gust Speed -    
Visibility 10 miles    
Events      
Averages and records for this station are not official NWS values.
T = Trace of Precipitation, MM = Missing Value Source: NWS Daily Summary

Daily Weather History Graph

Daily Weather History Graph

Search for Another Location

Airport or City:

Astronomy

Sep. 20, 2019 Rise Set
Actual Time 6:49 AM EDT 7:04 PM EDT
Civil Twilight 6:23 AM EDT 7:31 PM EDT
Nautical Twilight 5:52 AM EDT 8:02 PM EDT
Astronomical Twilight 5:20 AM EDT 8:34 PM EDT
Moon 10:56 PM EDT (9/20) 12:49 PM EDT (9/20)
Length of Visible Light 13h 08m
Length of Day
12h 14m
Waning Gibbous, 65% of the Moon is Illuminated
Sep 20
Waning Gibbous
Sep 21
Last Quarter
Sep 28
New
Oct 5
First Quarter
Oct 13
Full

Hourly Weather History & Observations

Time (EDT) Temp. Dew Point Humidity Pressure Visibility Wind Dir Wind Speed Gust Speed Precip Events Conditions
12:00 AM 56.5 °F 50.9 °F 82% 30.34 in 10.0 mi Calm Calm - N/A   Clear
12:20 AM 56.3 °F 50.5 °F 81% 30.33 in 10.0 mi Calm Calm - N/A   Clear
12:40 AM 55.4 °F 50.2 °F 83% 30.33 in 10.0 mi Calm Calm - N/A   Clear
1:00 AM 55.0 °F 50.4 °F 84% 30.33 in 10.0 mi Calm Calm - N/A   Clear
1:20 AM 54.5 °F 50.0 °F 85% 30.33 in 10.0 mi Calm Calm - N/A   Clear
1:40 AM 53.6 °F 50.0 °F 88% 30.33 in 10.0 mi Calm Calm - N/A   Clear
2:00 AM 53.8 °F 50.2 °F 88% 30.33 in 10.0 mi Calm Calm - N/A   Clear
2:20 AM 54.3 °F 51.1 °F 89% 30.33 in 10.0 mi Calm Calm - N/A   Clear
2:40 AM 55.4 °F 51.1 °F 85% 30.32 in 10.0 mi Calm Calm - N/A   Clear
3:00 AM 53.8 °F 50.4 °F 88% 30.33 in 10.0 mi Calm Calm - N/A   Clear
3:20 AM 53.2 °F 50.4 °F 90% 30.32 in 10.0 mi Calm Calm - N/A   Clear
3:40 AM 52.7 °F 50.4 °F 92% 30.32 in 10.0 mi Calm Calm - N/A   Clear
4:00 AM 51.6 °F 49.3 °F 92% 30.32 in 10.0 mi Calm Calm - N/A   Clear
4:20 AM 51.6 °F 49.6 °F 93% 30.32 in 10.0 mi Calm Calm - N/A   Clear
4:40 AM 52.2 °F 50.2 °F 93% 30.32 in 10.0 mi Calm Calm - N/A   Clear
5:00 AM 51.8 °F 50.0 °F 94% 30.32 in 10.0 mi Calm Calm - N/A   Clear
5:20 AM 51.8 °F 50.0 °F 94% 30.33 in 10.0 mi Calm Calm - N/A   Clear
5:40 AM 51.1 °F 49.5 °F 94% 30.33 in 10.0 mi Calm Calm - N/A   Clear
5:59 AM 51.8 °F 50.0 °F 94% 30.34 in 10.0 mi Calm Calm - N/A   Clear
6:49 AM 51.8 °F 50.0 °F 94% 30.34 in 10.0 mi Calm Calm - N/A   Partly Cloudy
7:53 AM 55.4 °F 51.8 °F 88% 30.35 in 10.0 mi Calm Calm - N/A   Partly Cloudy
8:48 AM 62.6 °F 55.4 °F 77% 30.37 in 10.0 mi Calm Calm - N/A   Partly Cloudy
9:57 AM 69.8 °F 55.4 °F 60% 30.37 in 10.0 mi West 5.8 mph - N/A   Partly Cloudy
10:50 AM 71.6 °F 53.6 °F 53% 30.35 in 10.0 mi South 4.6 mph - N/A   Clear
11:45 AM 73.4 °F 53.6 °F 50% 30.34 in 10.0 mi WSW 6.9 mph - N/A   Clear
12:47 PM 73.4 °F 51.8 °F 47% 30.33 in 10.0 mi WSW 5.8 mph - N/A   Scattered Clouds
2:55 PM 75.2 °F 44.6 °F 34% 30.27 in 10.0 mi South 8.1 mph - N/A   Clear
3:50 PM 77.0 °F 48.2 °F 36% 30.26 in 10.0 mi SW 6.9 mph - N/A   Clear
4:55 PM 75.2 °F 51.8 °F 44% 30.26 in 10.0 mi South 8.1 mph - N/A   Clear
5:50 PM 75.2 °F 50.0 °F 41% 30.26 in 10.0 mi SSW 6.9 mph - N/A   Clear
6:50 PM 71.6 °F 50.0 °F 46% 30.26 in 10.0 mi South 4.6 mph - N/A   Clear
7:50 PM 66.2 °F 53.6 °F 64% 30.26 in 10.0 mi South 5.8 mph - N/A   Clear
8:45 PM 66.2 °F 55.4 °F 68% 30.27 in 10.0 mi SSE 4.6 mph - N/A   Clear
9:45 PM 62.6 °F 57.2 °F 82% 30.28 in 10.0 mi Calm Calm - N/A   Clear
10:20 PM 63.0 °F 57.2 °F 81% 30.28 in 10.0 mi Calm Calm - N/A   Clear
10:40 PM 62.2 °F 57.6 °F 85% 30.29 in 10.0 mi Calm Calm - N/A   Clear
10:59 PM 62.6 °F 57.7 °F 84% 30.28 in 10.0 mi Calm Calm - N/A   Clear
11:19 PM 62.1 °F 57.7 °F 86% 30.28 in 10.0 mi Calm Calm - N/A   Clear
11:39 PM 61.9 °F 58.1 °F 87% 30.28 in 10.0 mi Calm Calm - N/A   Clear
11:59 PM 60.6 °F 57.6 °F 90% 30.28 in 10.0 mi Calm Calm - N/A   Clear